Regional Weather Roundup
Issued by NWS

Home | Current Version | Previous Version | Graphics & Text | Print | Product List | Glossary On
Versions: 1 2 3 4 5 6 7 8 9 10 11 12 13 14 15 16 17 18 19 20 21 22 23 24 25 26 27 28 29 30 31 32 33 34 35 36 37 38 39 40 41 42 43 44 45 46 47 48 49 50
000
ASUS43 KFSD 312010
RWRSD

WEATHER ROUNDUP FOR SOUTH DAKOTA
NATIONAL WEATHER SERVICE SIOUX FALLS SD
300 PM CDT MON AUG 31 2015

NOTE: "FAIR" INDICATES FEW OR NO CLOUDS BELOW 12,000 FEET WITH NO
SIGNIFICANT WEATHER AND/OR OBSTRUCTIONS TO VISIBILITY.


SDZ001>005-009-010-012>017-312100-
NORTHWEST AND NORTH CENTRAL SOUTH DAKOTA

CITY           SKY/WX    TMP DP  RH WIND       PRES   REMARKS
BUFFALO          N/A     76  41  28 W6        29.90F
FAITH            N/A     75  48  38 N8        29.96
MOBRIDGE       PTSUNNY   81  59  47 NW8       29.89R
$$

SDZ012>016-024>037-041>051-057-063-072>074-312100-
SOUTHWEST AND SOUTH CENTRAL SOUTH DAKOTA

CITY           SKY/WX    TMP DP  RH WIND       PRES   REMARKS
RAPID CTY ARPT CLOUDY    72  54  53 N9        30.00F
PIERRE         LGT RAIN  72  62  71 CALM      29.91R
CUSTER         PTSUNNY   72  51  47 SE8       30.10F
ELLSWORTH AFB  CLOUDY    71  53  51 NE7       30.00F
PHILIP         CLOUDY    77  59  53 N7        29.95F
PINE RIDGE     PTSUNNY   74  56  53 NE7       30.02S
WINNER         FAIR      84  60  44 N18       29.92R
$$

SDZ004>011-016>023-039-040-312100-
NORTHEAST SOUTH DAKOTA

CITY           SKY/WX    TMP DP  RH WIND       PRES   REMARKS
ABERDEEN       CLOUDY    79  63  57 N16       29.85R
WATERTOWN      SUNNY     83  65  54 SW10      29.85R
BROOKINGS      SUNNY     81  70  69 S17       29.87S
SISSETON         N/A     85  65  51 N13       29.80R
$$

SDZ017-020-022-023-036>040-048>070-312100-
SOUTHEAST SOUTH DAKOTA

CITY           SKY/WX    TMP DP  RH WIND       PRES   REMARKS
SIOUX FALLS    SUNNY     82  69  64 S17G25    29.87S
HURON          SUNNY     83  66  56 NW16      29.82R
CHAMBERLAIN    MOSUNNY   79  64  58 N15G23    29.88R
MITCHELL       SUNNY     89  65  44 S9        29.83S
YANKTON        SUNNY     84  66  54 S15G21    29.84F
$$

ABBREVIATIONS USED IN REMARKS
   TC - TEMPERATURE IN CELSIUS
  WCI - WIND CHILL INDEX
   HX - HEAT INDEX
  VSB - VISIBILITY



USA.gov is the U.S. government's official web portal to all federal, state and local government web resources and services.